AirNav   Pilot Hours Calculator
 
 1620 users online  

42A Melbourne Municipal Airport - John E Miller Field
Melbourne, Arkansas, USA

GOING TO MELBOURNE?


FAA INFORMATION EFFECTIVE 15 AUGUST 2019

Location

FAA Identifier: 42A
Lat/Long: 36-04-15.5000N 091-49-48.5000W
36-04.258333N 091-49.808333W
36.0709722,-91.8301389
(estimated)
Elevation: 734.8 ft. / 224.0 m (surveyed)
Variation: 01E (2005)
From city: 3 miles E of MELBOURNE, AR
Time zone: UTC -5 (UTC -6 during Standard Time)
Zip code: 72556

Airport Operations

Airport use: Open to the public
Activation date: 01/1994
Control tower: no
ARTCC: MEMPHIS CENTER
FSS: JONESBORO FLIGHT SERVICE STATION
NOTAMs facility: JBR (NOTAM-D service available)
Attendance: MON-FRI DAYLIGHT HOURS
Wind indicator: lighted
Segmented circle: yes
Lights: ACTVT MIRL RY 03/21 & REIL RY 03/21 - 122.95.
Beacon: white-green (lighted land airport)
Operates sunset to sunrise.

Airport Communications

CTAF: 122.9
  • APCH/DEP SVC PRVDD BY MEMPHIS ARTCC ON FREQS 126.85/281.55 (HARRISON RCAG).

Airport Services

Fuel available: 100LL JET-A
FUEL SELF SERVE WITH MAJOR CREDIT CARD (100LL & JET A)
Parking: hangars and tiedowns
Airframe service: MAJOR
Powerplant service: MAJOR

Runway Information

Runway 3/21

Dimensions: 4003 x 75 ft. / 1220 x 23 m
150 FT PAVED STOPWAY EACH END - FULL STRENGTH.
Surface: asphalt, in good condition
Runway edge lights: medium intensity
Runway edge markings: RWY 3 & 21 MARKINGS FADED
Gradient: SW.
RUNWAY 3  RUNWAY 21
Latitude: 36-03.978357N36-04.539275N
Longitude: 091-50.021925W091-49.594312W
Elevation: 734.8 ft.708.9 ft.
Traffic pattern: leftleft
Runway heading: 031 magnetic, 032 true211 magnetic, 212 true
Markings: nonprecision, in poor conditionnonprecision, in poor condition
Visual slope indicator: 2-light PAPI on left (3.00 degrees glide path)2-light PAPI on left (3.00 degrees glide path)
Runway end identifier lights: yesyes
Touchdown point: yes, no lightsyes, no lights
Obstructions: 27 ft. tree, 1100 ft. from runway, 530 ft. left of centerline, 33:1 slope to clear50 ft. tree, 1550 ft. from runway, 425 ft. left of centerline, 27:1 slope to clear

Airport Ownership and Management from official FAA records

Ownership: Publicly-owned
Owner: CITY OF MELBOURNE
PO BOX 800
MELBOURNE, AR 72556
Phone 870-368-4215
Manager: KELLY POWELL
P.O. BOX 800
MELBOURNE, AR 72556
Phone (870) 291-2665
COMMISSION CHAIRMAN.

Airport Operational Statistics

Aircraft based on the field: 18
Single engine airplanes: 14
Multi engine airplanes: 3
Jet airplanes: 1
    
Aircraft operations: avg 41/day *
67% local general aviation
33% transient general aviation
<1% military
* for 12-month period ending 30 June 2017

Additional Remarks

FOR CD CTC MEMPHIS ARTCC AT 901-368-8453.

Instrument Procedures

NOTE: All procedures below are presented as PDF files. If you need a reader for these files, you should download the free Adobe Reader.

NOT FOR NAVIGATION. Please procure official charts for flight.
FAA instrument procedures published for use from 15 August 2019 at 0901Z to 12 September 2019 at 0900Z.

 
IAPs - Instrument Approach Procedures
RNAV (GPS) RWY 03   download (176KB)
RNAV (GPS) RWY 21   download (167KB)
NOTE: Special Take-Off Minimums/Departure Procedures apply   download (249KB)

Other nearby airports with instrument procedures:

6M2 - Horseshoe Bend Airport (10 nm N)
KCVK - Sharp County Regional Airport (17 nm NE)
7M2 - Mountain View Airport-Wilcox Memorial Field (18 nm SW)
KBVX - Batesville Regional Airport (23 nm SE)
KHBZ - Heber Springs Municipal Airport (35 nm S)
 
Loc | Ops | Rwys | IFR | FBO | Links
Com | Nav | Svcs | Stats | Notes
Area around 42A (Melbourne Municipal Airport - John E Miller Field)
 
Road maps at: MapQuest Bing Google
 
Aerial photo
WARNING: Photo may not be current or correct
Aerial photo of 42A (Melbourne Municipal Airport - John E Miller Field)
Photo courtesy of the Arkansas Department of Aeronautics
Taken in the Spring of 2007

Do you have a better or more recent aerial photo of Melbourne Municipal Airport - John E Miller Field that you would like to share? If so, please send us your photo.

 
Sectional chart

 
Airport distance calculator
Flying to Melbourne Municipal Airport - John E Miller Field? Find the distance to fly.

From to 42A

Sunrise and sunset
Times for 19-Aug-2019
 Local
(UTC-5)
 Zulu
(UTC)
Morning civil twilight06:0311:03
Sunrise06:3011:30
Sunset19:5200:52
Evening civil twilight20:1901:19

Current date and time
Zulu (UTC)  19-Aug-2019 17:39:41
Local (UTC-5)  19-Aug-2019 12:39:41
 
METAR
KBVX 
23nm S 
191721Z AUTO 19004KT 10SM CLR 33/25 A3003 RMK AO2 PNO $
KFLP 
33nm NW 
191656Z AUTO 00000KT 10SM CLR 33/25 A3004 RMK AO2 SLP162 T03280250
KBPK 
36nm NW 
191653Z AUTO 32003KT 10SM CLR 32/24 A3004 RMK AO2 SLP160 T03170244
KM19 
41nm SE 
191656Z AUTO 10004KT 10SM CLR 32/26 A3003 RMK AO2 SLP166 T03170261
KCCA 
41nm SW 
191715Z AUTO 10003KT 10SM FEW100 33/26 A3002 RMK AO2
KARG 
44nm E 
191656Z AUTO VRB04KT 10SM CLR 31/26 A3003 RMK AO2 SLP167 T03110256
TAF
KBPK 
36nm NW 
191129Z 1912/2012 VRB03KT P6SM SCT100 SCT250 FM191500 VRB04KT P6SM SCT045 SCT250 FM200000 16003KT P6SM SCT250
NOTAMs
Click for the latest NOTAMs
NOTAMs are issued by the DoD/FAA and will open in a separate window not controlled by AirNav.

 

 
 

FBO, Fuel Providers, and Aircraft Ground Support

  
 Business Name 
 
 Contact 
 
 Services / Description 
 
Fuel Prices
 
Comments
  
Melbourne Municipal Airport 870-368-4215
no information available

If you are affiliated with Melbourne Municipal Airport and would like to show here your services, contact info, web link, logo, and more, click here
100LL Jet A
SS $4.21 $3.72 
 Updated 02-Aug-2019
 
   write
SS=Self service
Update Fuel Prices
 

Aviation Businesses, Services, and Facilities

  
 Business Name 
 
 Contact 
 
 Services / Description 
 
Distance
 
Comments
  
Emerson Air Service 870-368-4101
no information available

If you are affiliated with Emerson Air Service and would like to show here your services, contact info, web link, logo, and more, click here
on airport  
   write
 

Would you like to see your business listed on this page?

 If your business provides an interesting product or service to pilots, flight crews, aircraft, or users of the Melbourne Municipal Airport - John E Miller Field, you should consider listing it here.  To start the listing process, click on the button below
 
Add a business
 

Other Pages about Melbourne Municipal Airport - John E Miller Field

Update a link
 
Copyright © AirNav, LLC. All rights reserved. Privacy Policy  Contact